[[{"header":{"parameterUnit":"m.s-1","parameterCategory":2,"la1":30.2991,"la2":30.254,"lo1":-89.0895,"lo2":-89.0444,"dy":0.0017,"dx":0.0017,"nx":28,"ny":28,"refTime":"2024-03-18T21:00:00:Z","depth":"0","parameterNumber":2,"parameterNumberName":"U-component_of_CURRENTS"},"data":[0,0,0,0,0,0,0,0,0,0,0,0,0,0,0,0,0,0,0,0,0,0,0,0,0,0,0,0,0,0,0,0,0,0,0,0,0,0,0,0,0,0,0,0,0,0,0,0,0,0,0,0,0,0,0,0,0,0,0.2151,0.2151,0,0.2143,0.2143,0.2143,0.2135,0.2135,0.2136,0.2136,0.2111,0.2111,0.211,0,0,0,0,0,0,0,0,0,0,0,0,0,0.2151,0.2151,0.2151,0.2151,0.2151,0.2143,0.2143,0.2143,0.2135,0.2135,0.2136,0.2136,0.2112,0.2111,0.211,0,0,0,0,0,0,0,0,0,0,0,0,0,0.2145,0.2151,0.2151,0.2149,0.2148,0.2143,0.2143,0.2142,0.2135,0.2135,0.2136,0.2136,0.2112,0.2111,0.211,0.2098,0,0,0.2106,0.2106,0,0,0,0,0,0,0,0,0.2146,0.2145,0.2149,0.2149,0.2149,0.2143,0.2134,0.2128,0.2135,0.2138,0.2136,0.2136,0.2122,0.212,0.2115,0.2097,0.2096,0.2106,0.2105,0.2105,0.2104,0,0,0,0,0,0,0,0.2146,0.2145,0.2145,0.2149,0.2149,0.2145,0.2144,0.2133,0.2126,0.2137,0.2137,0.2141,0.2121,0.2116,0.2114,0.2096,0.2106,0.2105,0.2104,0.2104,0.2106,0.2106,0,0,0,0,0,0,0.2152,0.2146,0.2146,0.2145,0.2151,0.2145,0.2144,0.2142,0.2127,0.2126,0.214,0.214,0.2118,0.2115,0.2113,0.2133,0.2105,0.2104,0.2103,0.2105,0.2106,0.2107,0,0,0,0,0,0,0.2152,0.2152,0.2146,0.2148,0.2147,0.2145,0.2143,0.2142,0.2143,0.213,0.2128,0.2143,0.2118,0.2115,0.2114,0.2131,0.2103,0.2102,0.2104,0.2105,0.2106,0.2151,0,0,0,0,0,0,0.2152,0.2152,0.2151,0.2148,0.2147,0.2156,0.2143,0.2142,0.2145,0.2145,0.2131,0.2129,0.2118,0.2116,0.2113,0.2129,0.2101,0.2103,0.2105,0.2106,0.2149,0.2154,0.2158,0,0,0,0,0,0.2152,0.2151,0.215,0.2151,0.2146,0.2156,0.2156,0.2153,0.2145,0.2152,0.2142,0.2129,0.2123,0.2115,0.2112,0.2128,0.2102,0.2104,0.2106,0.2147,0.2153,0.2158,0,0,0,0,0,0,0.2141,0.215,0.215,0.2148,0.2159,0.2157,0.2159,0.2157,0.2152,0.2151,0.2134,0.2131,0.214,0.2126,0.2118,0.2133,0.2112,0.2113,0.2145,0.215,0.2155,0.2164,0.21,0,0,0,0,0,0.2141,0.2146,0.2155,0.2154,0.2161,0.216,0.2162,0.2164,0.2162,0.216,0.2152,0.2143,0.2143,0.214,0.2137,0.2138,0.2145,0.2148,0.2152,0.2156,0.2162,0.2189,0.2197,0.2112,0.2112,0.2112,0,0,0.2134,0.2141,0.2142,0.2153,0.2157,0.2169,0.2161,0.2172,0.218,0.2158,0.2162,0.2159,0.2148,0.2157,0.2159,0.2147,0.2186,0.2158,0.2162,0.2166,0.2192,0.22,0.2207,0.2113,0.2113,0.2113,0,0,0.2132,0.2134,0.2142,0.2155,0.2173,0.2177,0.2184,0.219,0.2194,0.2197,0.2191,0.22,0.2185,0.2192,0.2189,0.2215,0.2212,0.2213,0.224,0.2266,0.2274,0.228,0.2311,0.232,0.2212,0.2212,0.2212,0,0.2123,0.2137,0.2146,0.2162,0.2176,0.2183,0.22,0.2203,0.2208,0.2219,0.2205,0.2214,0.2204,0.2228,0.2237,0.2227,0.2242,0.222,0.2273,0.228,0.2286,0.2316,0.2325,0.2215,0.2214,0.2214,0.2214,0,0.2134,0.2146,0.2154,0.2178,0.2193,0.221,0.2226,0.2241,0.2242,0.2246,0.2271,0.2264,0.2274,0.2273,0.2258,0.2299,0.2297,0.228,0.2261,0.2297,0.2326,0.2335,0.2218,0.2217,0.2217,0.2216,0,0,0.211,0.2153,0.2155,0.2176,0.2207,0.2222,0.2247,0.2276,0.23,0.2301,0.2333,0.2331,0.2336,0.2335,0.2331,0.2347,0.24,0.2331,0.2331,0.2364,0.2468,0.2477,0.2487,0.2393,0.2395,0.2396,0.2475,0,0.2116,0.2152,0.2173,0.2206,0.2229,0.2255,0.2279,0.2305,0.2326,0.2358,0.2364,0.2387,0.2357,0.2374,0.2387,0.2401,0.2424,0.2381,0.2425,0.2426,0.2432,0.2498,0.2475,0.2545,0.2484,0.2485,0.2486,0,0.2121,0.2149,0.2185,0.2236,0.2248,0.2266,0.2324,0.235,0.2396,0.2416,0.2446,0.2452,0.2487,0.2451,0.2498,0.2473,0.2476,0.2478,0.2481,0.2479,0.2452,0.2496,0.2563,0.2542,0.25,0.2499,0.2498,0,0.2109,0.2157,0.2189,0.2205,0.2259,0.2282,0.2313,0.2364,0.2398,0.2462,0.2493,0.253,0.2558,0.2569,0.2572,0.2543,0.2621,0.2581,0.2594,0.2595,0.258,0.2576,0.2633,0.2617,0.2617,0.2616,0.2616,0,0.211,0.2134,0.2185,0.2202,0.2239,0.2283,0.2329,0.2371,0.244,0.2479,0.2521,0.2568,0.2587,0.2625,0.2614,0.2647,0.266,0.2622,0.2624,0.2595,0.2593,0.2574,0.2559,0.2619,0.2619,0.2618,0.2618,0,0.2086,0.2122,0.2159,0.2216,0.2232,0.2259,0.2328,0.2365,0.2438,0.2499,0.2523,0.2613,0.2676,0.2693,0.2733,0.2711,0.2688,0.2734,0.2705,0.2702,0.2681,0.2668,0.2625,0.2525,0.277,0.2771,0.2771,0,0.2073,0.2094,0.2152,0.217,0.2192,0.2238,0.2267,0.2349,0.2398,0.2519,0.2549,0.2647,0.2706,0.2793,0.2806,0.2829,0.2726,0.2795,0.2729,0.2703,0.2691,0.2574,0.2482,0.2731,0.2731,0.2731,0.2731,0,0.2047,0.2071,0.2096,0.2133,0.2163,0.2201,0.2256,0.2291,0.2389,0.2456,0.2558,0.2625,0.2751,0.2795,0.2846,0.2845,0.2712,0.28,0.2781,0.2684,0.2553,0.2449,0.2656,0.2733,0.2733,0.2733,0.2733,0.2733,0.2015,0.2022,0.2054,0.2083,0.2115,0.2142,0.2142,0.2224,0.2289,0.2371,0.2502,0.2595,0.275,0.2845,0.2817,0.2823,0.2739,0.2765,0.2761,0.2649,0.2526,0.2746,0.2814,0.2814,0.2814,0.2815,0.2815,0,0.196,0.1975,0.2002,0.2018,0.2017,0.2065,0.2111,0.2106,0.2143,0.2299,0.2389,0.2591,0.2692,0.2782,0.2872,0.2801,0.2642,0.2745,0.2584,0.2494,0.2724,0.2697,0.2733,0.2733,0.2733,0.2733,0.2733,0.2733,0.193,0.1921,0.1935,0.1907,0.1917,0.1885,0.1887,0.1917,0.201,0.2141,0.2275,0.242,0.2713,0.295,0.2946,0.2859,0.2607,0.2563,0.2469,0.2683,0.2683,0.2683,0.2654,0.268,0.268,0.2144,0.2141,0.2138]},{"header":{"parameterUnit":"m.s-1","parameterCategory":2,"la1":30.2991,"la2":30.254,"lo1":-89.0895,"lo2":-89.0444,"dy":0.0017,"dx":0.0017,"nx":28,"ny":28,"refTime":"2024-03-18T21:00:00:Z","depth":"0","parameterNumber":3,"parameterNumberName":"V-component_of_CURRENTS"},"data":[0,0,0,0,0,0,0,0,0,0,0,0,0,0,0,0,0,0,0,0,0,0,0,0,0,0,0,0,0,0,0,0,0,0,0,0,0,0,0,0,0,0,0,0,0,0,0,0,0,0,0,0,0,0,0,0,0,0,-0.0244,-0.0245,0,-0.0265,-0.0266,-0.0266,-0.0281,-0.0281,-0.0281,-0.0281,-0.0304,-0.0305,-0.0305,0,0,0,0,0,0,0,0,0,0,0,0,0,-0.0242,-0.0242,-0.0244,-0.0245,-0.0245,-0.0265,-0.0266,-0.0266,-0.0281,-0.0281,-0.0281,-0.0281,-0.0304,-0.0305,-0.0306,0,0,0,0,0,0,0,0,0,0,0,0,0,-0.0251,-0.0242,-0.0244,-0.0255,-0.0256,-0.0265,-0.0266,-0.0266,-0.0281,-0.0281,-0.0281,-0.0281,-0.0304,-0.0305,-0.0306,-0.0308,0,0,-0.0308,-0.0308,0,0,0,0,0,0,0,0,-0.0251,-0.0251,-0.0253,-0.0254,-0.0255,-0.027,-0.0274,-0.028,-0.028,-0.0271,-0.0281,-0.0281,-0.0293,-0.0295,-0.0299,-0.0309,-0.031,-0.0308,-0.0309,-0.0309,-0.0309,0,0,0,0,0,0,0,-0.025,-0.0251,-0.0253,-0.0253,-0.0254,-0.0267,-0.0268,-0.0275,-0.0281,-0.0272,-0.0273,-0.0275,-0.0294,-0.0298,-0.0299,-0.031,-0.0308,-0.0309,-0.0309,-0.031,-0.0318,-0.0317,0,0,0,0,0,0,-0.0246,-0.025,-0.0252,-0.0253,-0.0253,-0.0267,-0.0268,-0.0265,-0.0281,-0.0284,-0.0275,-0.0276,-0.0296,-0.0298,-0.03,-0.0292,-0.0309,-0.031,-0.031,-0.0318,-0.0318,-0.0317,0,0,0,0,0,0,-0.0245,-0.0245,-0.0251,-0.0252,-0.0254,-0.0266,-0.0263,-0.0266,-0.0269,-0.0283,-0.0286,-0.0275,-0.0297,-0.0299,-0.0299,-0.0294,-0.031,-0.0311,-0.0318,-0.0318,-0.0317,-0.0283,0,0,0,0,0,0,-0.0245,-0.0245,-0.0243,-0.0252,-0.0254,-0.025,-0.0263,-0.0266,-0.027,-0.0271,-0.0285,-0.0287,-0.0297,-0.0297,-0.03,-0.0295,-0.0311,-0.0319,-0.0318,-0.0318,-0.0285,-0.0282,-0.0279,0,0,0,0,0,-0.0245,-0.0236,-0.0243,-0.0243,-0.025,-0.0249,-0.0251,-0.0261,-0.027,-0.0265,-0.0274,-0.0286,-0.0296,-0.0298,-0.03,-0.0296,-0.0319,-0.0318,-0.0318,-0.0286,-0.0282,-0.0279,0,0,0,0,0,0,-0.0231,-0.0237,-0.0244,-0.0237,-0.0241,-0.0251,-0.0248,-0.0258,-0.0263,-0.0263,-0.028,-0.0283,-0.0283,-0.0293,-0.0295,-0.0297,-0.0311,-0.0311,-0.0286,-0.0283,-0.028,-0.0266,-0.0312,0,0,0,0,0,-0.0228,-0.0222,-0.0232,-0.0225,-0.0226,-0.0239,-0.0241,-0.0246,-0.0252,-0.0254,-0.0264,-0.0275,-0.0283,-0.0285,-0.0293,-0.0291,-0.0308,-0.0292,-0.0289,-0.0286,-0.0277,-0.0299,-0.0297,-0.0315,-0.0315,-0.0315,0,0,-0.022,-0.0222,-0.022,-0.0222,-0.0226,-0.0218,-0.024,-0.0236,-0.0229,-0.0256,-0.0247,-0.0265,-0.0281,-0.0279,-0.028,-0.0286,-0.0291,-0.0286,-0.0283,-0.0275,-0.0298,-0.0296,-0.0294,-0.0315,-0.0315,-0.0315,0,0,-0.0195,-0.0204,-0.019,-0.0191,-0.0194,-0.0201,-0.0199,-0.0207,-0.021,-0.0208,-0.0226,-0.0237,-0.0248,-0.0257,-0.0264,-0.0251,-0.0277,-0.0257,-0.023,-0.0251,-0.025,-0.0249,-0.0271,-0.0273,-0.0254,-0.0254,-0.0254,0,-0.0185,-0.017,-0.0185,-0.0171,-0.0167,-0.0191,-0.0173,-0.0179,-0.0185,-0.0182,-0.0199,-0.0219,-0.0236,-0.0235,-0.0232,-0.0244,-0.0261,-0.0241,-0.0247,-0.0246,-0.0246,-0.027,-0.0271,-0.0253,-0.0253,-0.0253,-0.0253,0,-0.0149,-0.0139,-0.0129,-0.012,-0.0119,-0.0107,-0.0117,-0.0114,-0.0127,-0.0137,-0.0142,-0.017,-0.018,-0.0194,-0.021,-0.0213,-0.0228,-0.0243,-0.0254,-0.0242,-0.0268,-0.027,-0.025,-0.0251,-0.0251,-0.0252,0,0,-0.0116,-0.0106,-0.0101,-0.0087,-0.009,-0.008,-0.0069,-0.0064,-0.0049,-0.0076,-0.0065,-0.0096,-0.0119,-0.0128,-0.0156,-0.0178,-0.0197,-0.0205,-0.0207,-0.0225,-0.0246,-0.0268,-0.0273,-0.0215,-0.0215,-0.0215,-0.0267,0,-0.0081,-0.0042,-0.005,-0.0013,0.0006,-0.001,0.0005,0.0005,-0.0005,-0.0002,-0.0044,-0.0048,-0.0092,-0.0098,-0.0127,-0.0176,-0.0201,-0.0182,-0.0258,-0.026,-0.0279,-0.0276,-0.0289,-0.0337,-0.027,-0.0271,-0.0271,0,-0.0038,-0.0017,0.0025,0.0048,0.0055,0.0073,0.0096,0.0105,0.0095,0.0087,0.0065,0.0028,-0.0006,-0.0048,-0.0128,-0.0114,-0.0173,-0.022,-0.0223,-0.0254,-0.0286,-0.0338,-0.0344,-0.0515,-0.0275,-0.0275,-0.0274,0,0.0009,0.0038,0.0076,0.0084,0.0103,0.0125,0.0134,0.0137,0.016,0.0144,0.0152,0.0094,0.0075,-0.0009,-0.011,-0.0119,-0.0203,-0.0228,-0.0304,-0.0306,-0.0336,-0.0341,-0.0512,-0.0283,-0.0283,-0.0283,-0.0283,0,0.0055,0.0087,0.0104,0.0129,0.018,0.0173,0.0225,0.0226,0.0239,0.0275,0.0202,0.0215,0.0084,0.0017,-0.0086,-0.02,-0.0187,-0.0296,-0.0319,-0.0326,-0.0329,-0.0493,-0.0586,-0.0285,-0.0284,-0.0284,-0.0284,0,0.0105,0.0112,0.0162,0.0193,0.0208,0.0246,0.0292,0.0331,0.0326,0.037,0.0368,0.031,0.0218,0.0079,-0.0056,-0.0158,-0.0379,-0.0317,-0.0317,-0.0339,-0.0571,-0.066,-0.0855,-0.0946,-0.041,-0.0411,-0.0412,0,0.0134,0.0167,0.0217,0.0253,0.0272,0.0324,0.0368,0.0382,0.0429,0.0438,0.0471,0.039,0.0358,0.014,-0.0068,-0.026,-0.0416,-0.0399,-0.0419,-0.0587,-0.0704,-0.0779,-0.0847,-0.0451,-0.0451,-0.0452,-0.0453,0,0.0195,0.0213,0.0255,0.0329,0.0384,0.0442,0.0505,0.0558,0.058,0.0609,0.0641,0.0612,0.0395,0.0193,-0.0087,-0.0231,-0.0545,-0.042,-0.0598,-0.0752,-0.0842,-0.0938,-0.0418,-0.046,-0.0459,-0.0459,-0.0458,-0.0458,0.0245,0.0284,0.0343,0.0415,0.0479,0.0561,0.0619,0.0684,0.076,0.0807,0.0777,0.0747,0.0429,0.0045,-0.0174,-0.0609,-0.061,-0.0734,-0.0827,-0.0887,-0.0984,-0.0477,-0.0544,-0.0544,-0.0543,-0.0543,-0.0543,0,0.031,0.0354,0.0424,0.0511,0.0591,0.0607,0.0713,0.0763,0.0856,0.0889,0.0907,0.0709,0.0332,-0.0071,-0.0636,-0.0947,-0.1075,-0.1135,-0.1256,-0.1305,-0.0855,-0.0866,-0.1001,-0.1001,-0.1001,-0.1,-0.1,-0.1,0.0347,0.0428,0.0461,0.0598,0.0656,0.0754,0.0815,0.0878,0.0918,0.0917,0.0872,0.0812,0.0428,-0.0496,-0.1211,-0.137,-0.1625,-0.1673,-0.18,-0.1505,-0.1475,-0.1446,-0.1479,-0.174,-0.1741,-0.2214,-0.2219,-0.2223]}],[{"header":{"parameterUnit":"m.s-1","parameterCategory":2,"la1":30.2991,"la2":30.254,"lo1":-89.0895,"lo2":-89.0444,"dy":0.0017,"dx":0.0017,"nx":28,"ny":28,"refTime":"2024-03-18T21:00:00:Z","depth":"2","parameterNumber":2,"parameterNumberName":"U-component_of_CURRENTS"},"data":[0,0,0,0,0,0,0,0,0,0,0,0,0,0,0,0,0,0,0,0,0,0,0,0,0,0,0,0,0,0,0,0,0,0,0,0,0,0,0,0,0,0,0,0,0,0,0,0,0,0,0,0,0,0,0,0,0,0,0.2122,0.2122,0,0.2115,0.2115,0.2115,0.2109,0.2109,0.211,0.211,0.2088,0.2088,0.2087,0,0,0,0,0,0,0,0,0,0,0,0,0,0.2119,0.2119,0.2122,0.2122,0.2122,0.2115,0.2115,0.2115,0.2109,0.2109,0.211,0.211,0.2089,0.2088,0.2087,0,0,0,0,0,0,0,0,0,0,0,0,0,0.2115,0.2119,0.2122,0.212,0.212,0.2115,0.2115,0.2115,0.2109,0.2109,0.211,0.211,0.2089,0.2088,0.2087,0.2075,0,0,0.2084,0.2083,0,0,0,0,0,0,0,0,0.2115,0.2115,0.212,0.2121,0.2121,0.2116,0.2107,0.2102,0.2109,0.2111,0.211,0.211,0.2097,0.2096,0.2091,0.2074,0.2073,0.2083,0.2083,0.2082,0.2082,0,0,0,0,0,0,0,0.2116,0.2115,0.2117,0.2121,0.2121,0.2117,0.2116,0.2105,0.2101,0.2111,0.2111,0.2114,0.2097,0.2092,0.209,0.2073,0.2083,0.2082,0.2082,0.2081,0.2086,0.2087,0,0,0,0,0,0,0.2122,0.2115,0.2117,0.2117,0.2121,0.2117,0.2116,0.2115,0.2101,0.21,0.2114,0.2114,0.2093,0.2091,0.2089,0.2111,0.2082,0.2081,0.2081,0.2085,0.2086,0.2087,0,0,0,0,0,0,0.2121,0.2122,0.2117,0.2118,0.2118,0.2117,0.2115,0.2115,0.2116,0.2104,0.2102,0.2117,0.2094,0.2091,0.2092,0.2109,0.2081,0.208,0.2084,0.2085,0.2086,0.2131,0,0,0,0,0,0,0.2121,0.2121,0.2121,0.2118,0.2118,0.2127,0.2115,0.2114,0.2119,0.2119,0.2106,0.2104,0.2094,0.2093,0.2091,0.2107,0.2079,0.2083,0.2085,0.2086,0.2129,0.2134,0.2138,0,0,0,0,0,0.2121,0.2121,0.2121,0.2121,0.2118,0.2128,0.2128,0.2126,0.2119,0.2126,0.2117,0.2105,0.2101,0.2093,0.2089,0.2106,0.2082,0.2084,0.2086,0.2127,0.2133,0.2138,0,0,0,0,0,0,0.2112,0.212,0.2121,0.212,0.2131,0.2129,0.2132,0.213,0.2127,0.2126,0.211,0.2108,0.2118,0.2104,0.2096,0.2112,0.2091,0.2092,0.2124,0.2129,0.2134,0.2143,0.2078,0,0,0,0,0,0.2112,0.2118,0.2126,0.2126,0.2133,0.2133,0.2136,0.2138,0.2137,0.2135,0.2128,0.212,0.2121,0.2118,0.2116,0.2118,0.2125,0.2128,0.2133,0.2137,0.2143,0.2169,0.2177,0.2092,0.2092,0.2092,0,0,0.2106,0.2113,0.2114,0.2126,0.213,0.2142,0.2135,0.2146,0.2155,0.2133,0.2139,0.2137,0.2126,0.2136,0.2139,0.2126,0.2166,0.2139,0.2142,0.2146,0.2172,0.218,0.2187,0.2094,0.2093,0.2093,0,0,0.2105,0.2108,0.2117,0.213,0.2147,0.2151,0.2158,0.2165,0.2169,0.2174,0.2168,0.2178,0.2165,0.2172,0.2169,0.2196,0.2193,0.2194,0.2221,0.2247,0.2254,0.2261,0.2291,0.23,0.2193,0.2193,0.2193,0,0.2097,0.2111,0.2121,0.2137,0.215,0.2157,0.2174,0.2178,0.2184,0.2195,0.2182,0.2193,0.2184,0.2208,0.2217,0.2208,0.2222,0.2201,0.2254,0.226,0.2266,0.2295,0.2304,0.2196,0.2195,0.2195,0.2195,0,0.2108,0.2121,0.2129,0.2153,0.2168,0.2186,0.2201,0.2217,0.2219,0.2223,0.2249,0.2243,0.2254,0.2253,0.2238,0.228,0.2278,0.226,0.2241,0.2278,0.2306,0.2315,0.2199,0.2198,0.2197,0.2197,0,0,0.2086,0.2129,0.2132,0.2152,0.2183,0.2197,0.2223,0.2252,0.2276,0.2278,0.2311,0.231,0.2316,0.2315,0.2311,0.2327,0.238,0.2312,0.2312,0.2344,0.2447,0.2452,0.2462,0.2373,0.2375,0.2376,0.2453,0,0.2094,0.2129,0.2149,0.2182,0.2205,0.2231,0.2254,0.2281,0.2303,0.2335,0.2342,0.2366,0.2337,0.2354,0.2367,0.2381,0.2404,0.2361,0.2404,0.2405,0.2408,0.2472,0.2239,0.2289,0.2462,0.2463,0.2464,0,0.2099,0.2126,0.2162,0.2212,0.2225,0.2243,0.2301,0.2326,0.2373,0.2393,0.2423,0.243,0.2465,0.2431,0.2476,0.2452,0.2455,0.2458,0.246,0.2455,0.2427,0.2278,0.2299,0.2479,0.2478,0.2476,0.2476,0,0.2088,0.2135,0.2167,0.2183,0.2236,0.226,0.229,0.2341,0.2375,0.2439,0.247,0.2507,0.2535,0.2546,0.2549,0.2521,0.2598,0.2558,0.2569,0.2569,0.2374,0.2355,0.2594,0.2594,0.2594,0.2593,0.2593,0,0.2089,0.2113,0.2164,0.218,0.2218,0.2261,0.2308,0.235,0.2417,0.2457,0.2499,0.2545,0.2564,0.2602,0.2591,0.2621,0.2636,0.2596,0.2597,0.2385,0.2367,0.2525,0.2515,0.2596,0.2596,0.2595,0.2595,0,0.2066,0.2101,0.2138,0.2195,0.2212,0.2239,0.2307,0.2344,0.2416,0.2478,0.2502,0.259,0.2651,0.2669,0.2706,0.2684,0.2704,0.2705,0.2465,0.2438,0.2646,0.2638,0.2734,0.2735,0.2736,0.2737,0.2737,0,0.2054,0.2074,0.2133,0.215,0.2173,0.2219,0.2248,0.233,0.2377,0.2497,0.2527,0.2623,0.2673,0.2756,0.2727,0.2737,0.2755,0.254,0.2446,0.2673,0.2665,0.2655,0.2647,0.22,0.2197,0.2193,0.2191,0,0.2028,0.2053,0.2078,0.2115,0.2145,0.2183,0.2238,0.2272,0.2369,0.2429,0.2528,0.2587,0.2671,0.259,0.262,0.2589,0.2522,0.2482,0.2772,0.2219,0.2181,0.217,0.2176,0.2163,0.2166,0.2168,0.2169,0.217,0.1998,0.2005,0.2038,0.2067,0.2099,0.2126,0.2126,0.2185,0.2241,0.2276,0.2423,0.2413,0.2443,0.2379,0.2321,0.227,0.2445,0.2309,0.2313,0.2322,0.2265,0.2232,0.2213,0.2215,0.2218,0.222,0.2222,0,0.1936,0.1959,0.1987,0.2004,0.1993,0.2051,0.2095,0.2057,0.206,0.2122,0.2166,0.2007,0.197,0.1994,0.1875,0.1913,0.1835,0.1835,0.1682,0.1714,0.1741,0.1648,0.1435,0.1433,0.143,0.1428,0,0,0.1904,0.1893,0.1906,0.1874,0.1893,0.1844,0.1845,0.181,0.1817,0.1766,0.1732,0.1848,0.1937,0.1636,0.1624,0.1501,0.1587,0.1449,0.2086,0.1936,0.196,0.2031,0.1928,0,0,0,0,0]},{"header":{"parameterUnit":"m.s-1","parameterCategory":2,"la1":30.2991,"la2":30.254,"lo1":-89.0895,"lo2":-89.0444,"dy":0.0017,"dx":0.0017,"nx":28,"ny":28,"refTime":"2024-03-18T21:00:00:Z","depth":"2","parameterNumber":3,"parameterNumberName":"V-component_of_CURRENTS"},"data":[0,0,0,0,0,0,0,0,0,0,0,0,0,0,0,0,0,0,0,0,0,0,0,0,0,0,0,0,0,0,0,0,0,0,0,0,0,0,0,0,0,0,0,0,0,0,0,0,0,0,0,0,0,0,0,0,0,0,-0.0159,-0.0159,0,-0.018,-0.018,-0.0181,-0.0197,-0.0197,-0.0197,-0.0197,-0.0222,-0.0223,-0.0223,0,0,0,0,0,0,0,0,0,0,0,0,0,-0.0154,-0.0154,-0.0159,-0.0159,-0.0159,-0.018,-0.018,-0.0181,-0.0197,-0.0197,-0.0197,-0.0197,-0.0222,-0.0223,-0.0223,0,0,0,0,0,0,0,0,0,0,0,0,0,-0.0164,-0.0154,-0.0159,-0.017,-0.0171,-0.018,-0.018,-0.0181,-0.0197,-0.0197,-0.0197,-0.0197,-0.0222,-0.0223,-0.0223,-0.0224,0,0,-0.0226,-0.0226,0,0,0,0,0,0,0,0,-0.0163,-0.0164,-0.0168,-0.0169,-0.017,-0.0186,-0.0188,-0.0195,-0.0197,-0.0187,-0.0197,-0.0197,-0.021,-0.0212,-0.0215,-0.0225,-0.0226,-0.0226,-0.0226,-0.0227,-0.0227,0,0,0,0,0,0,0,-0.0162,-0.0163,-0.0167,-0.0168,-0.017,-0.0181,-0.0183,-0.0189,-0.0197,-0.0188,-0.0189,-0.0191,-0.0211,-0.0215,-0.0216,-0.0226,-0.0226,-0.0227,-0.0227,-0.0227,-0.0236,-0.0236,0,0,0,0,0,0,-0.0158,-0.0162,-0.0166,-0.0168,-0.0167,-0.0181,-0.0183,-0.0181,-0.0197,-0.02,-0.0191,-0.0192,-0.0213,-0.0215,-0.0217,-0.0211,-0.0227,-0.0227,-0.0228,-0.0236,-0.0236,-0.0236,0,0,0,0,0,0,-0.0158,-0.0158,-0.0166,-0.0166,-0.0168,-0.0181,-0.0179,-0.0181,-0.0185,-0.02,-0.0202,-0.0193,-0.0213,-0.0216,-0.0217,-0.0212,-0.0228,-0.0228,-0.0236,-0.0236,-0.0236,-0.0203,0,0,0,0,0,0,-0.0158,-0.0158,-0.0157,-0.0165,-0.0167,-0.0164,-0.0178,-0.0181,-0.0186,-0.0188,-0.0202,-0.0204,-0.0214,-0.0215,-0.0217,-0.0213,-0.0229,-0.0237,-0.0236,-0.0236,-0.0204,-0.0201,-0.0199,0,0,0,0,0,-0.0157,-0.0149,-0.0156,-0.0157,-0.0165,-0.0164,-0.0166,-0.0176,-0.0186,-0.0182,-0.0191,-0.0204,-0.0214,-0.0215,-0.0218,-0.0214,-0.0237,-0.0236,-0.0236,-0.0205,-0.0202,-0.0199,0,0,0,0,0,0,-0.0144,-0.0151,-0.0158,-0.0153,-0.0157,-0.0166,-0.0164,-0.0175,-0.018,-0.0181,-0.0198,-0.0201,-0.0201,-0.0211,-0.0213,-0.0216,-0.0229,-0.0229,-0.0205,-0.0202,-0.0199,-0.0185,-0.023,0,0,0,0,0,-0.0142,-0.0137,-0.0147,-0.014,-0.0142,-0.0155,-0.0157,-0.0163,-0.0169,-0.0172,-0.0182,-0.0193,-0.0201,-0.0204,-0.0211,-0.021,-0.0227,-0.0211,-0.0208,-0.0206,-0.0196,-0.0218,-0.0217,-0.0234,-0.0234,-0.0234,0,0,-0.0135,-0.0137,-0.0136,-0.0137,-0.0142,-0.0135,-0.0156,-0.0154,-0.0146,-0.0173,-0.0166,-0.0184,-0.0199,-0.0198,-0.0199,-0.0205,-0.0211,-0.0205,-0.0203,-0.0195,-0.0218,-0.0216,-0.0214,-0.0233,-0.0233,-0.0233,0,0,-0.0111,-0.0121,-0.0107,-0.0109,-0.0112,-0.0119,-0.0118,-0.0126,-0.0129,-0.0128,-0.0146,-0.0157,-0.0168,-0.0176,-0.0183,-0.0171,-0.0197,-0.0178,-0.0151,-0.0173,-0.0171,-0.017,-0.0194,-0.0195,-0.0175,-0.0175,-0.0175,0,-0.0103,-0.0088,-0.0103,-0.0089,-0.0086,-0.011,-0.0092,-0.0098,-0.0105,-0.0103,-0.0119,-0.014,-0.0157,-0.0155,-0.0153,-0.0164,-0.0182,-0.0162,-0.0169,-0.0168,-0.0168,-0.0192,-0.0194,-0.0173,-0.0174,-0.0174,-0.0174,0,-0.0068,-0.0058,-0.0049,-0.004,-0.0039,-0.0028,-0.0038,-0.0035,-0.0049,-0.0059,-0.0064,-0.0092,-0.0103,-0.0116,-0.0131,-0.0135,-0.0151,-0.0164,-0.0176,-0.0164,-0.0191,-0.0193,-0.0171,-0.0172,-0.0172,-0.0173,0,0,-0.0038,-0.0027,-0.0023,-0.0008,-0.0012,-0.0001,0.001,0.0015,0.0029,0.0002,0.0012,-0.0019,-0.0042,-0.0052,-0.0079,-0.0101,-0.0122,-0.0129,-0.0131,-0.0149,-0.0172,-0.0195,-0.02,-0.0139,-0.0139,-0.0139,-0.0193,0,-0.0004,0.0034,0.0027,0.0064,0.0083,0.0067,0.0082,0.0082,0.0072,0.0075,0.0033,0.0028,-0.0016,-0.0022,-0.0052,-0.0101,-0.0126,-0.0106,-0.0182,-0.0184,-0.0204,-0.0203,-0.0164,-0.021,-0.0196,-0.0196,-0.0197,0,0.0037,0.0058,0.01,0.0124,0.0131,0.0148,0.0171,0.018,0.017,0.0161,0.0139,0.0102,0.0067,0.0026,-0.0054,-0.004,-0.01,-0.0145,-0.0149,-0.0181,-0.0212,-0.0219,-0.0216,-0.0202,-0.0201,-0.0201,-0.02,0,0.0082,0.0111,0.0149,0.0157,0.0177,0.0198,0.0207,0.0211,0.0233,0.0216,0.0223,0.0166,0.0146,0.0063,-0.0039,-0.0047,-0.0132,-0.0155,-0.0233,-0.0235,-0.0221,-0.0222,-0.0211,-0.0211,-0.0211,-0.021,-0.021,0,0.0127,0.0158,0.0176,0.0201,0.0251,0.0245,0.0296,0.0297,0.0309,0.0343,0.0271,0.0283,0.0154,0.0086,-0.0016,-0.0131,-0.0117,-0.0225,-0.0249,-0.021,-0.0209,-0.0215,-0.0215,-0.0213,-0.0212,-0.0212,-0.0211,0,0.0175,0.0182,0.0231,0.0263,0.0277,0.0315,0.0361,0.0399,0.0393,0.0435,0.0432,0.0374,0.0281,0.0143,0.0009,-0.0091,-0.0205,-0.0249,-0.0198,-0.0215,-0.0301,-0.0299,-0.0342,-0.0344,-0.0345,-0.0346,-0.0346,0,0.0202,0.0235,0.0285,0.032,0.0338,0.0389,0.0433,0.0447,0.0493,0.05,0.0532,0.0448,0.0414,0.0196,0.0003,-0.0185,-0.0214,-0.0281,-0.0293,-0.0295,-0.0314,-0.031,-0.0306,-0.0264,-0.0264,-0.0264,-0.0264,0,0.0261,0.0278,0.032,0.0392,0.0446,0.0504,0.0566,0.0617,0.0638,0.0666,0.0694,0.0662,0.0456,0.0275,0.0001,-0.0123,-0.0253,-0.0289,-0.0297,-0.0239,-0.0227,-0.0244,-0.0241,-0.0264,-0.0264,-0.0264,-0.0264,-0.0264,0.0309,0.0347,0.0405,0.0474,0.0537,0.0618,0.0674,0.0738,0.0812,0.0855,0.082,0.0775,0.0561,0.0221,-0.0005,-0.0252,-0.025,-0.033,-0.0328,-0.0326,-0.0309,-0.03,-0.0348,-0.0348,-0.0349,-0.0349,-0.035,0,0.0377,0.0413,0.0482,0.0567,0.0648,0.0661,0.0765,0.082,0.091,0.0932,0.0941,0.0764,0.054,0.0284,-0.007,-0.0285,-0.0289,-0.0357,-0.0309,-0.0307,-0.0306,-0.0286,-0.032,-0.0321,-0.0321,-0.0322,0,0,0.0414,0.0495,0.0527,0.0658,0.071,0.0813,0.0873,0.0948,0.0986,0.1022,0.0994,0.0912,0.0613,0.0364,0.0076,-0.0126,-0.0171,-0.0166,-0.0165,-0.0073,-0.0069,-0.0264,-0.023,0,0,0,0,0]}],[{"header":{"parameterUnit":"m.s-1","parameterCategory":2,"la1":30.2991,"la2":30.254,"lo1":-89.0895,"lo2":-89.0444,"dy":0.0017,"dx":0.0017,"nx":28,"ny":28,"refTime":"2024-03-18T21:00:00:Z","depth":"4","parameterNumber":2,"parameterNumberName":"U-component_of_CURRENTS"},"data":[0,0,0,0,0,0,0,0,0,0,0,0,0,0,0,0,0,0,0,0,0,0,0,0,0,0,0,0,0,0,0,0,0,0,0,0,0,0,0,0,0,0,0,0,0,0,0,0,0,0,0,0,0,0,0,0,0,0,0.1323,0.1324,0,0.1365,0.1366,0.1366,0.1411,0.1412,0.1412,0.1413,0.1466,0.1467,0.1468,0,0,0,0,0,0,0,0,0,0,0,0,0,0.126,0.1261,0.1323,0.1324,0.1324,0.1365,0.1366,0.1366,0.1411,0.1412,0.1413,0.1413,0.1466,0.1467,0.1468,0,0,0,0,0,0,0,0,0,0,0,0,0,0.1292,0.1262,0.1323,0.1353,0.1356,0.1365,0.1366,0.1366,0.141,0.1412,0.1413,0.1414,0.1466,0.1467,0.1468,0.1451,0,0,0.1471,0.1472,0,0,0,0,0,0,0,0,0.129,0.1294,0.1348,0.1351,0.1354,0.1385,0.1363,0.1396,0.141,0.1388,0.1413,0.1414,0.144,0.1444,0.1447,0.1454,0.1456,0.1471,0.1472,0.1472,0.1473,0,0,0,0,0,0,0,0.1288,0.1293,0.1338,0.1348,0.1352,0.1357,0.1363,0.1369,0.1406,0.139,0.1394,0.1401,0.1442,0.1445,0.1448,0.1457,0.1471,0.1472,0.1473,0.1473,0.155,0.1551,0,0,0,0,0,0,0.1286,0.1291,0.1337,0.134,0.1326,0.1357,0.1364,0.1373,0.1406,0.1413,0.14,0.1403,0.1443,0.1447,0.145,0.1521,0.1472,0.1473,0.1474,0.1549,0.155,0.1552,0,0,0,0,0,0,0.1284,0.129,0.1335,0.1317,0.1324,0.1358,0.1367,0.1373,0.1409,0.1413,0.142,0.1433,0.1444,0.1449,0.1488,0.152,0.1474,0.1475,0.1547,0.1549,0.1551,0.1605,0,0,0,0,0,0,0.1282,0.1289,0.1308,0.1317,0.1325,0.1364,0.1366,0.1373,0.141,0.1415,0.1444,0.1448,0.1445,0.1487,0.1489,0.1521,0.1476,0.1545,0.1548,0.1551,0.1602,0.1609,0.1615,0,0,0,0,0,0.128,0.1296,0.1309,0.1315,0.1345,0.1365,0.137,0.1396,0.1411,0.1431,0.1454,0.1449,0.1505,0.1488,0.1491,0.1524,0.1544,0.1547,0.155,0.1599,0.1608,0.1615,0,0,0,0,0,0,0.1281,0.1303,0.1316,0.1341,0.1363,0.1374,0.1398,0.1412,0.1445,0.146,0.1464,0.147,0.1518,0.1512,0.1493,0.1554,0.1525,0.1529,0.1561,0.1569,0.1576,0.158,0.1476,0,0,0,0,0,0.1288,0.131,0.1329,0.1352,0.1366,0.1387,0.1404,0.1423,0.1445,0.1463,0.1483,0.1505,0.1526,0.1542,0.1558,0.1587,0.1588,0.1611,0.1618,0.1623,0.1629,0.1657,0.1666,0.1562,0.1562,0.1562,0,0,0.1294,0.1311,0.1324,0.1355,0.1375,0.1397,0.1402,0.1437,0.1464,0.1462,0.1515,0.1533,0.154,0.1579,0.1599,0.1582,0.1656,0.1627,0.1632,0.1635,0.1661,0.1671,0.168,0.1565,0.1564,0.1564,0,0,0.1307,0.1335,0.1355,0.1377,0.1415,0.1426,0.1444,0.1475,0.1503,0.1545,0.1556,0.1595,0.1623,0.1638,0.1646,0.1698,0.1693,0.1709,0.1744,0.1771,0.178,0.1787,0.1808,0.1817,0.1709,0.1709,0.1709,0,0.1316,0.1344,0.1365,0.139,0.1415,0.1443,0.1471,0.1495,0.1539,0.1567,0.1574,0.1639,0.1649,0.1693,0.1715,0.1714,0.1727,0.1711,0.178,0.1787,0.1794,0.1813,0.1823,0.1712,0.1712,0.1712,0.1711,0,0.1335,0.137,0.1386,0.1426,0.1454,0.1486,0.1519,0.1561,0.1597,0.162,0.1687,0.1706,0.1746,0.1756,0.1752,0.181,0.1804,0.1787,0.1757,0.1808,0.1825,0.1834,0.1717,0.1716,0.1715,0.1714,0,0,0.1319,0.1386,0.1395,0.1427,0.1481,0.1503,0.1556,0.1607,0.1652,0.1698,0.1754,0.1796,0.1819,0.183,0.1839,0.1861,0.1922,0.1851,0.1851,0.1869,0.1987,0.1864,0.1862,0.1921,0.1923,0.1924,0.1982,0,0.1332,0.1384,0.1417,0.1474,0.1503,0.1553,0.1597,0.1649,0.17,0.1761,0.1795,0.1851,0.1842,0.1877,0.1901,0.1921,0.1947,0.1908,0.1938,0.1939,0.1821,0.1868,0.193,0.1988,0.199,0.1992,0.1993,0,0.1334,0.1373,0.1431,0.1507,0.1526,0.1567,0.1655,0.1702,0.1781,0.1824,0.1885,0.1914,0.1973,0.1952,0.2012,0.1992,0.2001,0.2004,0.2006,0.1876,0.1831,0.1926,0.2008,0.2007,0.2006,0.2005,0.2004,0,0.1303,0.1382,0.1433,0.1459,0.1543,0.1591,0.1645,0.1727,0.1776,0.1877,0.1924,0.1988,0.2036,0.2059,0.2074,0.2057,0.2124,0.2096,0.1992,0.1984,0.2053,0.2044,0.2137,0.2137,0.2137,0.2136,0.2136,0,0.1288,0.1332,0.143,0.1456,0.1525,0.1592,0.1674,0.1737,0.1829,0.1883,0.1962,0.2004,0.2067,0.2106,0.2105,0.2074,0.2153,0.2007,0.1992,0.2076,0.2069,0.206,0.205,0.2139,0.2138,0.2138,0.2137,0,0.1236,0.1303,0.1367,0.1473,0.1511,0.1563,0.168,0.173,0.1832,0.191,0.1947,0.2039,0.2088,0.2128,0.2169,0.2103,0.2092,0.2061,0.2161,0.215,0.1928,0.1921,0.1948,0.1944,0.1941,0.1938,0.1936,0,0.121,0.1241,0.1365,0.1407,0.1462,0.1551,0.1604,0.1719,0.1766,0.1907,0.1926,0.2021,0.2067,0.2022,0.2077,0.2073,0.2044,0.2026,0.1961,0.1927,0.191,0.1908,0.1905,0.1931,0.193,0.1929,0.1928,0,0.1157,0.1217,0.127,0.1357,0.1428,0.1495,0.1583,0.1602,0.1727,0.1834,0.1854,0.1874,0.1925,0.1938,0.1954,0.1944,0.2028,0.1991,0.1997,0.1936,0.1906,0.1892,0.1893,0.1917,0.1919,0.192,0.192,0,0.1121,0.1144,0.1225,0.1291,0.1373,0.1412,0.147,0.1518,0.1573,0.1713,0.1716,0.1812,0.1902,0.1873,0.1886,0.187,0.1834,0.1761,0.1778,0.1791,0.1711,0.1648,0.1573,0,0,0,0,0,0.1073,0.1093,0.1151,0.1216,0.1292,0.1343,0.1439,0.1496,0.1609,0.1578,0.1639,0.1673,0.1688,0.1735,0.1685,0.1828,0.1852,0.1764,0.1779,0.1854,0.1868,0.1786,0,0,0,0,0,0,0.1043,0.1092,0.1118,0.1139,0.1167,0.124,0.1297,0.1378,0.136,0.1475,0.1485,0.1573,0.1609,0.1697,0.1653,0.1669,0.1643,0.1825,0.1821,0.1847,0.1859,0.1869,0.1791,0,0,0,0,0]},{"header":{"parameterUnit":"m.s-1","parameterCategory":2,"la1":30.2991,"la2":30.254,"lo1":-89.0895,"lo2":-89.0444,"dy":0.0017,"dx":0.0017,"nx":28,"ny":28,"refTime":"2024-03-18T21:00:00:Z","depth":"4","parameterNumber":3,"parameterNumberName":"V-component_of_CURRENTS"},"data":[0,0,0,0,0,0,0,0,0,0,0,0,0,0,0,0,0,0,0,0,0,0,0,0,0,0,0,0,0,0,0,0,0,0,0,0,0,0,0,0,0,0,0,0,0,0,0,0,0,0,0,0,0,0,0,0,0,0,0.0152,0.0152,0,0.013,0.013,0.013,0.0117,0.0117,0.0117,0.0117,0.0094,0.0093,0.0093,0,0,0,0,0,0,0,0,0,0,0,0,0,0.0171,0.0171,0.0152,0.0152,0.0152,0.013,0.013,0.0129,0.0117,0.0117,0.0117,0.0117,0.0094,0.0093,0.0093,0,0,0,0,0,0,0,0,0,0,0,0,0,0.0158,0.0171,0.0152,0.0143,0.0142,0.013,0.013,0.0129,0.0118,0.0117,0.0117,0.0117,0.0094,0.0093,0.0092,0.0089,0,0,0.009,0.0089,0,0,0,0,0,0,0,0,0.0159,0.0157,0.0145,0.0144,0.0142,0.0126,0.0128,0.0116,0.0118,0.0127,0.0117,0.0117,0.0104,0.0103,0.0099,0.0088,0.0087,0.009,0.0089,0.0089,0.0089,0,0,0,0,0,0,0,0.016,0.0158,0.0144,0.0144,0.0143,0.0135,0.0133,0.0125,0.0117,0.0126,0.0125,0.0122,0.0104,0.01,0.0098,0.0086,0.009,0.0089,0.0088,0.0088,0.0066,0.0066,0,0,0,0,0,0,0.0162,0.0159,0.0145,0.0143,0.015,0.0135,0.0133,0.0132,0.0117,0.0114,0.0122,0.0122,0.0101,0.0099,0.0098,0.0095,0.0089,0.0088,0.0088,0.0066,0.0066,0.0066,0,0,0,0,0,0,0.0163,0.0161,0.0145,0.015,0.0147,0.0135,0.0133,0.0131,0.0127,0.0114,0.0111,0.0121,0.0101,0.0099,0.0094,0.0094,0.0088,0.0087,0.0066,0.0066,0.0066,0.0089,0,0,0,0,0,0,0.0164,0.0162,0.0162,0.015,0.0147,0.0144,0.0133,0.0131,0.0125,0.0125,0.0112,0.0109,0.0101,0.0096,0.0094,0.0093,0.0086,0.0066,0.0066,0.0066,0.0088,0.009,0.0091,0,0,0,0,0,0.0164,0.0169,0.0162,0.016,0.0148,0.0144,0.0142,0.0133,0.0126,0.0128,0.0118,0.011,0.0093,0.0095,0.0093,0.0092,0.0067,0.0066,0.0066,0.0088,0.0089,0.0091,0,0,0,0,0,0,0.0176,0.0167,0.016,0.016,0.0154,0.0142,0.0143,0.0134,0.0128,0.0126,0.0112,0.0109,0.0104,0.0095,0.0097,0.0084,0.0077,0.0076,0.0094,0.0096,0.0097,0.0108,0.0086,0,0,0,0,0,0.0178,0.0181,0.0168,0.017,0.0167,0.0154,0.015,0.0144,0.0136,0.0133,0.0123,0.0111,0.0101,0.0097,0.0088,0.0083,0.0067,0.0079,0.008,0.0081,0.0088,0.0063,0.0063,0.0066,0.0066,0.0066,0,0,0.0184,0.0179,0.018,0.0173,0.0166,0.0168,0.0152,0.015,0.0153,0.0132,0.0133,0.0116,0.0101,0.0096,0.0092,0.0088,0.0071,0.0081,0.0082,0.0089,0.0063,0.0063,0.0062,0.0066,0.0066,0.0066,0,0,0.02,0.0191,0.0199,0.0195,0.0187,0.018,0.018,0.0168,0.0165,0.0161,0.0145,0.0131,0.0117,0.0106,0.0098,0.01,0.0079,0.0094,0.011,0.0085,0.0085,0.0084,0.0058,0.0055,0.0094,0.0094,0.0094,0,0.0207,0.0214,0.0201,0.0207,0.0208,0.0187,0.0197,0.019,0.0179,0.0178,0.0165,0.0138,0.0122,0.0115,0.0114,0.0104,0.0086,0.0106,0.0087,0.0086,0.0086,0.0059,0.0056,0.0095,0.0095,0.0095,0.0095,0,0.0228,0.0233,0.0238,0.0239,0.0238,0.0244,0.0232,0.023,0.0218,0.0207,0.0194,0.0168,0.0153,0.0139,0.0127,0.0114,0.0101,0.0092,0.0085,0.0087,0.0058,0.0054,0.0097,0.0096,0.0096,0.0096,0,0,0.025,0.0253,0.0255,0.0264,0.0257,0.0262,0.0266,0.0264,0.027,0.0244,0.0244,0.0213,0.0192,0.0181,0.0158,0.0133,0.0104,0.0112,0.011,0.009,0.0047,0.0037,0.0031,0.0091,0.009,0.009,0.0028,0,0.0273,0.0295,0.0288,0.0311,0.0322,0.0308,0.0316,0.031,0.0297,0.0291,0.0253,0.0243,0.021,0.0201,0.017,0.0124,0.0095,0.0122,0.0046,0.0044,0.0037,0.0027,0.0088,0.0025,0.0024,0.0023,0.0023,0,0.0298,0.0311,0.0339,0.0354,0.0357,0.0369,0.038,0.0382,0.0364,0.0352,0.0327,0.0294,0.0256,0.0226,0.0145,0.0163,0.011,0.0068,0.0064,0.0046,0.0026,0.0023,0.0015,0.0016,0.0016,0.0017,0.0017,0,0.0331,0.0348,0.0376,0.038,0.0391,0.0406,0.0411,0.0405,0.0415,0.0392,0.0389,0.0334,0.0309,0.0236,0.0145,0.0144,0.0051,0.0039,-0.0021,-0.0023,-0.0004,-0.0003,-0.0018,-0.0018,-0.0018,-0.0017,-0.0017,0,0.0361,0.0383,0.0397,0.0414,0.0451,0.0443,0.0477,0.0472,0.047,0.0481,0.0425,0.0416,0.031,0.0242,0.0157,0.0055,0.0058,-0.0019,-0.0039,0.0005,0.0008,-0.0008,-0.0006,-0.002,-0.0019,-0.0019,-0.0018,0,0.0393,0.04,0.0437,0.0459,0.0471,0.0497,0.0527,0.0546,0.0536,0.0548,0.0542,0.0475,0.038,0.027,0.0145,0.0076,-0.0024,-0.0061,-0.0005,-0.0021,-0.0086,-0.0082,-0.0134,-0.0135,-0.0136,-0.0136,-0.0137,0,0.041,0.0434,0.0476,0.05,0.0515,0.0551,0.0579,0.0584,0.0602,0.0583,0.0589,0.0505,0.0445,0.0264,0.0143,-0.0024,-0.0048,-0.0098,-0.0094,-0.0083,-0.0098,-0.0093,-0.0088,-0.0138,-0.0138,-0.0139,-0.0139,0,0.0446,0.0464,0.0492,0.0543,0.0582,0.0619,0.0654,0.0672,0.0672,0.0668,0.0624,0.0523,0.0414,0.0265,0.0133,0.0015,-0.0065,-0.0107,-0.0106,-0.0102,-0.0089,-0.0101,-0.0096,-0.0141,-0.0141,-0.0141,-0.0141,0,0.0473,0.0497,0.0536,0.0577,0.0628,0.0665,0.0681,0.0692,0.0705,0.0678,0.0664,0.054,0.047,0.0285,0.0166,0.0043,0.0011,-0.0024,-0.0028,-0.0027,0.002,0.0054,0.0028,0,0,0,0,0,0.0493,0.0518,0.0562,0.0605,0.0655,0.0681,0.0721,0.0728,0.0732,0.0708,0.0684,0.0579,0.0391,0.0311,0.0186,0.0145,-0.0013,-0.0005,-0.0055,-0.0156,-0.0153,-0.0118,0,0,0,0,0,0,0.0505,0.055,0.0563,0.0619,0.065,0.0704,0.073,0.0731,0.0712,0.0697,0.0599,0.0551,0.0368,0.0463,0.0185,0.0147,0.0099,-0.0092,-0.0095,-0.0157,-0.0155,-0.0152,-0.0115,0,0,0,0,0]}]]